• In Romania
  • List of Countries
  • For 7 days
  • Water Temperature
  • Satellite Maps
  • Weather Map
  • Weather Widgets
  • user-avatar
    Login

    Hourly Weather Kerns

    Today, 18 October, Wednesday

    Time Temperature Precipitation Wind Pressure Humidity
    00:00 +22°C° 0.8 mm 3 mps 757 mmHg 96%
    01:00 +22°C° 0.8 mm 3 mps 757 mmHg 96%
    02:00 +22°C° 0.6 mm 3 mps 757 mmHg 96%
    03:00 +22°C° 0.6 mm 3 mps 756 mmHg 96%
    04:00 +21°C° 0 mm 4 mps 756 mmHg 96%
    05:00 +22°C° 0.8 mm 3 mps 756 mmHg 95%
    06:00 +22°C° 0.8 mm 3 mps 757 mmHg 93%
    07:00 +24°C° 0.8 mm 3 mps 757 mmHg 91%
    08:00 +26°C° 0 mm 3 mps 757 mmHg 81%
    09:00 +28°C° 0 mm 3 mps 757 mmHg 72%
    10:00 +30°C° 0 mm 5 mps 758 mmHg 67%
    11:00 +30°C° 0.4 mm 5 mps 757 mmHg 66%
    12:00 +32°C° 0.4 mm 5 mps 757 mmHg 64%
    13:00 +32°C° 0.4 mm 5 mps 756 mmHg 63%
    14:00 +32°C° 0.4 mm 5 mps 756 mmHg 67%
    15:00 +30°C° 0.4 mm 5 mps 756 mmHg 71%
    16:00 +28°C° 0 mm 4 mps 756 mmHg 80%
    17:00 +27°C° 0.2 mm 4 mps 756 mmHg 84%
    18:00 +27°C° 0.2 mm 4 mps 757 mmHg 89%
    19:00 +26°C° 0.2 mm 3 mps 757 mmHg 94%
    20:00 +26°C° 0.9 mm 3 mps 758 mmHg 93%
    21:00 +26°C° 0.9 mm 3 mps 758 mmHg 93%
    22:00 +26°C° 0.9 mm 3 mps 758 mmHg 93%
    23:00 +25°C° 1.5 mm 3 mps 758 mmHg 94%

    Tomorrow, 19 October, Thursday

    Time Temperature Precipitation Wind Pressure Humidity
    00:00 +25°C° 1.5 mm 3 mps 758 mmHg 95%
    01:00 +24°C° 1.5 mm 2 mps 758 mmHg 96%
    02:00 +24°C° 1.1 mm 2 mps 758 mmHg 96%
    03:00 +24°C° 1.1 mm 2 mps 758 mmHg 96%
    04:00 +24°C° 1.1 mm 2 mps 758 mmHg 96%
    05:00 +24°C° 1.2 mm 2 mps 758 mmHg 96%
    06:00 +25°C° 1.2 mm 2 mps 758 mmHg 95%
    07:00 +25°C° 1.2 mm 2 mps 759 mmHg 95%
    08:00 +25°C° 0.2 mm 3 mps 759 mmHg 93%
    09:00 +26°C° 0.2 mm 3 mps 759 mmHg 92%
    10:00 +27°C° 0.2 mm 3 mps 759 mmHg 91%
    11:00 +27°C° 0.5 mm 3 mps 759 mmHg 90%
    12:00 +27°C° 0.5 mm 3 mps 759 mmHg 90%
    13:00 +27°C° 0.5 mm 3 mps 758 mmHg 90%
    14:00 +28°C° 0.1 mm 3 mps 758 mmHg 86%
    15:00 +29°C° 0.1 mm 3 mps 758 mmHg 83%
    16:00 +29°C° 0.1 mm 3 mps 757 mmHg 79%
    17:00 +28°C° 0.5 mm 3 mps 758 mmHg 84%
    18:00 +27°C° 0.5 mm 3 mps 758 mmHg 89%
    19:00 +26°C° 0.5 mm 3 mps 759 mmHg 94%
    20:00 +26°C° 0.9 mm 3 mps 759 mmHg 94%
    21:00 +26°C° 0.9 mm 4 mps 759 mmHg 94%
    22:00 +26°C° 0.9 mm 4 mps 760 mmHg 94%
    23:00 +26°C° 1.3 mm 4 mps 759 mmHg 94%

    Day after tomorrow, 20 October, Friday

    Time Temperature Precipitation Wind Pressure Humidity
    00:00 +26°C° 1.3 mm 5 mps 759 mmHg 95%
    01:00 +26°C° 1.3 mm 5 mps 759 mmHg 95%
    02:00 +26°C° 1.8 mm 5 mps 759 mmHg 95%
    03:00 +26°C° 1.8 mm 5 mps 758 mmHg 95%
    04:00 +26°C° 1.8 mm 5 mps 758 mmHg 95%
    05:00 +26°C° 1.2 mm 5 mps 759 mmHg 95%
    06:00 +26°C° 1.2 mm 5 mps 759 mmHg 94%
    07:00 +26°C° 1.2 mm 5 mps 760 mmHg 94%
    08:00 +27°C° 0.7 mm 5 mps 760 mmHg 92%
    09:00 +27°C° 0.7 mm 5 mps 760 mmHg 90%
    10:00 +28°C° 0.7 mm 5 mps 761 mmHg 88%
    11:00 +28°C° 0.5 mm 5 mps 760 mmHg 86%
    12:00 +29°C° 0.5 mm 5 mps 760 mmHg 83%
    13:00 +29°C° 0.5 mm 5 mps 760 mmHg 81%
    14:00 +29°C° 0.3 mm 5 mps 759 mmHg 81%
    15:00 +29°C° 0.3 mm 5 mps 758 mmHg 82%
    16:00 +29°C° 0.3 mm 5 mps 758 mmHg 82%
    17:00 +28°C° 0.3 mm 5 mps 758 mmHg 86%
    18:00 +27°C° 0.3 mm 4 mps 758 mmHg 90%
    19:00 +27°C° 0.3 mm 4 mps 759 mmHg 94%
    20:00 +26°C° 0.8 mm 4 mps 759 mmHg 94%
    21:00 +26°C° 0.8 mm 3 mps 760 mmHg 95%
    22:00 +26°C° 0.8 mm 3 mps 760 mmHg 96%
    23:00 +26°C° 0.5 mm 3 mps 760 mmHg 96%

    21 October, Saturday

    Time Temperature Precipitation Wind Pressure Humidity
    00:00 +26°C° 0.5 mm 3 mps 759 mmHg 96%
    01:00 +26°C° 0.5 mm 4 mps 759 mmHg 96%
    02:00 +26°C° 0.2 mm 3 mps 758 mmHg 96%
    03:00 +26°C° 0.2 mm 3 mps 758 mmHg 96%
    04:00 +26°C° 0.2 mm 3 mps 758 mmHg 96%
    05:00 +26°C° 0.1 mm 3 mps 758 mmHg 95%
    06:00 +26°C° 0.1 mm 3 mps 758 mmHg 94%
    07:00 +26°C° 0.1 mm 3 mps 759 mmHg 93%
    08:00 +28°C° 0.3 mm 3 mps 759 mmHg 87%
    09:00 +29°C° 0.3 mm 3 mps 759 mmHg 81%
    10:00 +30°C° 0.3 mm 3 mps 759 mmHg 75%
    11:00 +31°C° 0.6 mm 3 mps 758 mmHg 74%
    12:00 +31°C° 0.6 mm 3 mps 758 mmHg 73%
    13:00 +33°C° 0.6 mm 3 mps 757 mmHg 73%
    14:00 +31°C° 0.7 mm 3 mps 757 mmHg 77%
    15:00 +30°C° 0.7 mm 3 mps 756 mmHg 81%
    16:00 +29°C° 0.7 mm 2 mps 756 mmHg 85%
    17:00 +28°C° 0.3 mm 2 mps 756 mmHg 88%
    18:00 +27°C° 0.3 mm 2 mps 757 mmHg 91%
    19:00 +27°C° 0.3 mm 2 mps 757 mmHg 93%
    20:00 +27°C° 0.4 mm 2 mps 758 mmHg 94%
    21:00 +26°C° 0.4 mm 2 mps 758 mmHg 94%
    22:00 +26°C° 0.4 mm 2 mps 758 mmHg 95%
    23:00 +26°C° 0.5 mm 1 mps 758 mmHg 95%

    22 October, Sunday

    Time Temperature Precipitation Wind Pressure Humidity
    00:00 +26°C° 0.5 mm 1 mps 757 mmHg 96%
    01:00 +26°C° 0.5 mm 1 mps 757 mmHg 96%
    02:00 +25°C° 0.4 mm 1 mps 757 mmHg 96%
    03:00 +25°C° 0.4 mm 1 mps 756 mmHg 96%
    04:00 +23°C° 0.4 mm 0 mps 756 mmHg 97%
    05:00 +24°C° 0.1 mm 0 mps 756 mmHg 95%
    06:00 +24°C° 0.1 mm 0 mps 757 mmHg 92%
    07:00 +25°C° 0.1 mm 0 mps 757 mmHg 90%
    08:00 +29°C° 0.3 mm 1 mps 757 mmHg 83%
    09:00 +31°C° 0.3 mm 1 mps 757 mmHg 75%
    10:00 +33°C° 0.3 mm 1 mps 757 mmHg 68%
    11:00 +33°C° 1.4 mm 1 mps 757 mmHg 68%
    12:00 +34°C° 1.4 mm 2 mps 756 mmHg 68%
    13:00 +34°C° 1.4 mm 2 mps 756 mmHg 69%
    14:00 +32°C° 1.3 mm 2 mps 755 mmHg 72%
    15:00 +31°C° 1.3 mm 2 mps 755 mmHg 75%
    16:00 +30°C° 1.3 mm 2 mps 755 mmHg 78%
    17:00 +29°C° 0.9 mm 2 mps 755 mmHg 83%
    18:00 +28°C° 0.9 mm 1 mps 756 mmHg 88%
    19:00 +27°C° 0.9 mm 1 mps 756 mmHg 92%
    20:00 +26°C° 0.1 mm 1 mps 757 mmHg 93%
    21:00 +26°C° 0.1 mm 1 mps 757 mmHg 94%
    22:00 +26°C° 0.1 mm 1 mps 757 mmHg 94%
    23:00 +25°C° 0 mm 1 mps 757 mmHg 94%

    23 October, Monday

    Time Temperature Precipitation Wind Pressure Humidity
    00:00 +25°C° 0 mm 1 mps 757 mmHg 93%
    01:00 +25°C° 0 mm 1 mps 756 mmHg 93%
    02:00 +25°C° 0 mm 1 mps 756 mmHg 91%
    03:00 +25°C° 0 mm 1 mps 756 mmHg 90%
    04:00 +24°C° 0 mm 1 mps 756 mmHg 89%
    05:00 +25°C° 0 mm 1 mps 757 mmHg 86%
    06:00 +25°C° 0 mm 1 mps 758 mmHg 83%
    07:00 +26°C° 0 mm 1 mps 758 mmHg 81%
    08:00 +28°C° 0 mm 1 mps 758 mmHg 69%
    09:00 +31°C° 0 mm 1 mps 758 mmHg 57%
    10:00 +33°C° 0 mm 1 mps 759 mmHg 45%
    11:00 +34°C° 0 mm 2 mps 758 mmHg 44%
    12:00 +35°C° 0 mm 2 mps 758 mmHg 43%
    13:00 +36°C° 0 mm 2 mps 757 mmHg 42%
    14:00 +35°C° 0 mm 3 mps 757 mmHg 46%
    15:00 +34°C° 0 mm 3 mps 757 mmHg 51%
    16:00 +33°C° 0 mm 3 mps 757 mmHg 56%
    17:00 +30°C° 0 mm 3 mps 757 mmHg 66%
    18:00 +28°C° 0 mm 3 mps 758 mmHg 76%
    19:00 +27°C° 0 mm 2 mps 759 mmHg 87%
    20:00 +26°C° 0 mm 2 mps 759 mmHg 89%
    21:00 +26°C° 0 mm 2 mps 759 mmHg 92%
    22:00 +25°C° 0 mm 2 mps 760 mmHg 95%
    23:00 +25°C° 0 mm 2 mps 760 mmHg 95%
    Show more